Weather History for KBIX - August, 2014

Change the Weather History Date:

Monday, August 4, 2014

  Actual Average Record
Temperature  
Mean Temperature 80 °F -  
Max Temperature 90 °F 89 °F 99 °F (1978)
Min Temperature 72 °F 73 °F 70 °F (1973)
Cooling Degree Days 16    
Growing Degree Days 30 (Base 50)    
Moisture  
Dew Point 73 °F    
Average Humidity 82    
Maximum Humidity 95    
Minimum Humidity 63    
Precipitation  
Precipitation 0.24 in - - ()
Sea Level Pressure  
Sea Level Pressure 29.99 in    
Wind  
Wind Speed 5 mph (NE)    
Max Wind Speed 12 mph    
Max Gust Speed -    
Visibility 9 miles    
Events Rain , Thunderstorm    
Averages and records for this station are not official NWS values.
T = Trace of Precipitation, MM = Missing Value Source: NWS Daily Summary

Daily Weather History Graph

Daily Weather History Graph

Search for Another Location

Airport or City:

Trip Planner

Search our weather history database for the weather conditions in past years. The results will help you decide how hot, cold, wet, or windy it might be!

Date:

Astronomy

Aug. 04, 2014 Rise Set
Actual Time 6:15 AM CDT 7:47 PM CDT
Civil Twilight 5:49 AM CDT 8:13 PM CDT
Nautical Twilight 5:18 AM CDT 8:44 PM CDT
Astronomical Twilight 4:46 AM CDT 9:16 PM CDT
Moon 2:00 PM CDT (8/4) 12:19 AM CDT (8/4)
Length of Visible Light 14h 23m
Length of Day
13h 31m
First Quarter, 57% of the Moon is Illuminated
Aug 4
First Quarter
Aug 10
Full
Aug 17
Last Quarter
Aug 25
New
Sep 2
First Quarter

Hourly Weather History & Observations

Time (CDT) Temp. Heat Index Dew Point Humidity Pressure Visibility Wind Dir Wind Speed Gust Speed Precip Events Conditions
12:58 AM 73.6 °F - 70.3 °F 90% 30.00 in 10.0 mi North 4.6 mph - N/A   Partly Cloudy
1:58 AM 73.0 °F - 70.3 °F 91% 29.98 in 10.0 mi NNE 3.5 mph - N/A   Partly Cloudy
2:58 AM 72.9 °F - 70.3 °F 92% 29.97 in 10.0 mi NNE 5.8 mph - N/A   Partly Cloudy
3:58 AM 72.7 °F - 70.7 °F 93% 29.96 in 10.0 mi NNE 2.3 mph - N/A   Clear
4:58 AM 72.9 °F - 71.1 °F 94% 29.98 in 10.0 mi North 6.9 mph - N/A   Mostly Cloudy
5:58 AM 73.4 °F - 71.8 °F 95% 29.99 in 10.0 mi ENE 4.6 mph - N/A   Mostly Cloudy
6:58 AM 73.4 °F - 71.8 °F 95% 30.00 in 10.0 mi NE 3.5 mph - N/A   Scattered Clouds
7:58 AM 76.1 °F - 73.4 °F 91% 30.02 in 10.0 mi Variable 3.5 mph - N/A   Partly Cloudy
8:58 AM 79.2 °F - 74.3 °F 85% 30.04 in 10.0 mi East 4.6 mph - N/A   Clear
9:58 AM 82.8 °F 90.1 °F 75.4 °F 78% 30.05 in 10.0 mi Variable 1.2 mph - N/A   Clear
10:58 AM 86.0 °F 93.8 °F 73.8 °F 67% 30.04 in 10.0 mi NE 4.6 mph - N/A   Clear
11:58 AM 86.4 °F 94.6 °F 74.3 °F 67% 30.03 in 10.0 mi SW 2.3 mph - N/A   Clear
12:58 PM 88.2 °F 96.9 °F 73.9 °F 63% 30.00 in 10.0 mi Variable 2.3 mph - N/A   Partly Cloudy
1:58 PM 89.6 °F 100.4 °F 75.6 °F 63% 29.99 in 10.0 mi SSW 6.9 mph - N/A   Clear
2:58 PM 89.1 °F 99.6 °F 75.6 °F 64% 29.96 in 10.0 mi South 8.1 mph - N/A   Partly Cloudy
3:58 PM 88.9 °F 99.7 °F 75.9 °F 65% 29.95 in 10.0 mi South 6.9 mph - N/A   Clear
4:58 PM 86.9 °F 96.8 °F 75.7 °F 69% 29.96 in 10.0 mi South 10.4 mph - N/A   Clear
5:33 PM 86.0 °F 95.1 °F 75.2 °F 70% 29.95 in 10.0 mi SSW 10.4 mph - N/A Thunderstorm Thunderstorm
5:57 PM 84.2 °F 92.3 °F 75.2 °F 74% 29.97 in 10.0 mi SSW 5.8 mph - N/A Thunderstorm Mostly Cloudy
5:58 PM 84.2 °F 92.3 °F 75.2 °F 74% 29.98 in 10.0 mi SSW 6.9 mph - N/A Thunderstorm Mostly Cloudy
6:09 PM 84.2 °F 92.3 °F 75.2 °F 74% 29.97 in 9.0 mi WSW 5.8 mph - N/A Thunderstorm Thunderstorm
6:10 PM 84.2 °F 92.3 °F 75.2 °F 74% 29.97 in 7.0 mi WSW 5.8 mph - N/A Rain , Thunderstorm Light Thunderstorms and Rain
6:15 PM 84.2 °F 94.1 °F 77.0 °F 79% 29.97 in 2.5 mi SW 11.5 mph - N/A Rain , Thunderstorm Heavy Thunderstorms and Rain
6:20 PM 82.4 °F 90.9 °F 77.0 °F 84% 29.97 in 1.8 mi SW 11.5 mph - N/A Rain , Thunderstorm Heavy Thunderstorms and Rain
6:25 PM 80.6 °F 86.2 °F 75.2 °F 84% 29.98 in 3.0 mi NNW 1.2 mph - N/A Rain , Thunderstorm Light Thunderstorms and Rain
6:29 PM 78.8 °F - 75.2 °F 89% 29.98 in 9.0 mi NW 2.3 mph - N/A Rain , Thunderstorm Light Rain
6:42 PM 78.8 °F - 73.4 °F 83% 29.98 in 10.0 mi WNW 1.2 mph - N/A Thunderstorm Mostly Cloudy
6:46 PM 77.0 °F - 73.4 °F 89% 29.98 in 9.0 mi Calm Calm - N/A Rain , Thunderstorm Light Rain
6:47 PM 77.0 °F - 73.4 °F 89% 29.97 in 8.0 mi Calm Calm - N/A Rain , Thunderstorm Light Thunderstorms and Rain
6:58 PM 78.6 °F - 76.1 °F 92% 30.00 in 6.0 mi Variable 2.3 mph - 0.21 in Rain , Thunderstorm Light Thunderstorms and Rain
7:23 PM 77.0 °F - 71.6 °F 83% 29.99 in 10.0 mi ENE 11.5 mph - N/A Rain , Thunderstorm Light Thunderstorms and Rain
7:28 PM 77.0 °F - 69.8 °F 78% 29.99 in 10.0 mi ENE 10.4 mph - N/A Rain , Thunderstorm Light Thunderstorms and Rain
7:43 PM 75.2 °F - 69.8 °F 83% 29.98 in 8.0 mi ESE 11.5 mph - N/A Rain , Thunderstorm Light Thunderstorms and Rain
7:48 PM 75.2 °F - 71.6 °F 89% 30.01 in 8.0 mi ESE 5.8 mph - N/A Rain , Thunderstorm Light Thunderstorms and Rain
7:58 PM 74.8 °F - 70.2 °F 85% 30.03 in 10.0 mi NE 3.5 mph - 0.03 in Rain , Thunderstorm Light Thunderstorms and Rain
8:06 PM 73.4 °F - 71.6 °F 94% 30.01 in 10.0 mi Calm Calm - N/A Thunderstorm Thunderstorm
8:17 PM 75.2 °F - 69.8 °F 83% 30.01 in 10.0 mi Calm Calm - N/A Thunderstorm Mostly Cloudy
8:58 PM 74.8 °F - 69.6 °F 84% 30.01 in 10.0 mi Calm Calm - 0.00 in   Clear
9:58 PM 74.8 °F - 72.5 °F 92% 30.03 in 10.0 mi Variable 3.5 mph - N/A   Partly Cloudy
10:58 PM 75.4 °F - 72.0 °F 89% 30.02 in 10.0 mi NE 2.3 mph - N/A   Clear
11:58 PM 75.0 °F - 72.9 °F 93% 30.01 in 10.0 mi North 1.2 mph - N/A   Clear